Regional Weather Roundup
Issued by NWS

Home | Current Version | Previous Version | Graphics & Text | Print | Product List | Glossary On
Versions: 1 2 3 4 5 6 7 8 9 10 11 12 13 14 15 16 17 18 19 20 21 22 23 24 25 26 27 28 29 30 31 32 33 34 35 36 37 38 39 40 41 42 43 44 45 46 47 48 49 50
000
ASUS43 KLMK 282002
RWRKY
KENTUCKY REGIONAL WEATHER ROUNDUP
NATIONAL WEATHER SERVICE LOUISVILLE KY
400 PM EDT SUN AUG 28 2016

NOTE "FAIR" INDICATES FEW OR NO CLOUDS BELOW 12,000 FEET
WITH NO SIGNIFICANT WEATHER AND/OR OBSTRUCTIONS TO VISIBILITY.

KYZ001>023-026-027-061>063-070>075-282100-
WESTERN AND SOUTH CENTRAL KENTUCKY

CITY           SKY/WX    TMP DP  RH WIND       PRES   REMARKS
PADUCAH        MOSUNNY   93  74  53 NE7       30.09F HX 103
HENDERSON      CLOUDY    81  70  69 W3        30.11F
OWENSBORO      MOSUNNY   94  75  53 CALM      30.11F HX 105
HOPKINSVILLE   MOSUNNY   92  71  50 CALM      30.11F HX  99
BOWLING GREEN  MOSUNNY   92  71  50 CALM      30.11F HX  98
GLASGOW        MOSUNNY   92  72  51 NE5       30.11F HX  98
$$

KYZ024-025-028>034-038-045-046-053-282100-
NORTH CENTRAL KENTUCKY

CITY           SKY/WX    TMP DP  RH WIND       PRES   REMARKS
LOUISVILLE/SDF MOSUNNY   95  70  44 VRB3      30.10F HX 101
LOUISVILLE/LOU SUNNY     91  71  51 NE5       30.11F HX  97
FORT KNOX      SUNNY     91  74  56 NE3       30.11F HX 100
$$

KYZ035>037-039>044-047>052-055>060-089>105-282100-
NORTHEAST KENTUCKY

CITY           SKY/WX    TMP DP  RH WIND       PRES   REMARKS
LEXINGTON      CLOUDY    74  67  78 NE14      30.17S THUNDER
COVINGTON      MOSUNNY   91  71  51 NW5       30.15F HX  97
FRANKFORT      CLOUDY    79  66  64 E20G30    30.15R THUNDER
$$

KYZ054-064>069-076>088-106>120-282100-
SOUTHEAST KENTUCKY

CITY           SKY/WX    TMP DP  RH WIND       PRES   REMARKS
JACKSON        CLOUDY    83  72  69 CALM      30.19R
LONDON         MOSUNNY   90  70  51 VRB3      30.16F HX  95
SOMERSET       CLOUDY    90  64  43 N5        30.13F HX  91
MIDDLESBORO    CLOUDY    86  70  59 NE22G28   30.17R HX  90
MONTICELLO     PTCLDY   N/A N/A N/A N15G21    30.14F
$$





USA.gov is the U.S. government's official web portal to all federal, state and local government web resources and services.